Regional Weather Roundup
Issued by NWS

Home | Current Version | Previous Version | Text Only | Print | Product List | Glossary On
Versions: 1 2 3 4 5 6 7 8 9 10 11 12 13 14 15 16 17 18 19 20 21 22 23 24 25 26 27
000
ASUS45 KREV 220010
RWRNV
NEVADA REGIONAL WEATHER ROUNDUP
NATIONAL WEATHER SERVICE RENO NV
500 PM PDT MON AUG 21 2017

NOTE: "FAIR" INDICATES FEW OR NO CLOUDS BELOW 12,000 FEET WITH NO
SIGNIFICANT WEATHER AND/OR OBSTRUCTIONS TO VISIBILITY.

NVZ001-003-004-220100-
WESTERN NEVADA

CITY           SKY/WX    TMP DP  RH WIND       PRES   REMARKS
RENO           MOSUNNY   94  33  11 E10       30.06F
6HR MIN TEMP:  77; 6HR MAX TEMP:  94;

CARSON CITY    FAIR      91  28  10 NE13      30.09S
MINDEN         FAIR      90  34  13 E9        30.08S
FALLON         PTSUNNY   93  28  10 W8        30.03F
6HR MIN TEMP:  79; 6HR MAX TEMP:  94;

LOVELOCK       SUNNY     92  35  13 S6        30.04F
6HR MIN TEMP:  78; 6HR MAX TEMP:  92;

HAWTHORNE      SUNNY     90  37  15 S21G26    30.07R
$$

NVZ002-CAZ072-073-220100-
NORTHERN AND CENTRAL SIERRA

CITY           SKY/WX    TMP DP  RH WIND       PRES   REMARKS
S. LAKE TAHOE  PTSUNNY   68  48  48 S17G29    30.27R
6HR MIN TEMP:  67; 6HR MAX TEMP:  81;

TRUCKEE        PTSUNNY   79  54  41 W13G20    30.21R
SQUAW VLY 8000   N/A     66  50  55 SW9         N/A
SUSANVILLE     SUNNY     91  36  14 NE5       30.07F
MAMMOTH LAKES  FAIR      74  34  23 E6        30.32F
6HR MIN TEMP:  60; 6HR MAX TEMP:  74;

BRIDGEPORT     FAIR      70  50  49 SW7       30.27R
$$

NVZ030-031-036-220100-
NORTHERN NEVADA

CITY           SKY/WX    TMP DP  RH WIND       PRES   REMARKS
ELKO           MOSUNNY   91  27  10 CALM      30.12F
6HR MIN TEMP:  74; 6HR MAX TEMP:  93;

WINNEMUCCA     SUNNY     95  31  10 NW6       30.07F
6HR MIN TEMP:  76; 6HR MAX TEMP:  95;

WENDOVER       SUNNY     90  33  13 SE8       30.09F
$$

NVZ035-037-220100-
CENTRAL NEVADA

CITY           SKY/WX    TMP DP  RH WIND       PRES   REMARKS
ELY            CLOUDY    79  34  19 S13       30.24R
6HR MIN TEMP:  76; 6HR MAX TEMP:  88;

EUREKA           N/A     85  32  15 W8        30.18F
6HR MIN TEMP:  73; 6HR MAX TEMP:  89;

$$

NVZ013-014-220100-
SOUTH CENTRAL NEVADA

CITY           SKY/WX    TMP DP  RH WIND       PRES   REMARKS
TONOPAH        CLOUDY    80  41  24 S13G21    30.22F
6HR MIN TEMP:  76; 6HR MAX TEMP:  84;

$$

NVZ017-020-022-220100-
SOUTHERN NEVADA

CITY           SKY/WX    TMP DP  RH WIND       PRES   REMARKS
LAS VEGAS      PTSUNNY   91  51  25 NE5       30.01S
6HR MIN TEMP:  79; 6HR MAX TEMP:  93;

N. LAS VEGAS   MOSUNNY   91  50  24 E10       30.01S
6HR MIN TEMP:  73; 6HR MAX TEMP:  92;

NELLIS AFB     MOSUNNY   91  51  25 NE9       29.99F
6HR MIN TEMP:  77; 6HR MAX TEMP:  91; 6HR PCP:  0.02;

HENDERSON      SUNNY     90  52  27 N7        30.04F
6HR MIN TEMP:  79; 6HR MAX TEMP:  92;

MERCURY        MOSUNNY   89  49  25 E15       30.06F
6HR MIN TEMP:  75; 6HR MAX TEMP:  89;

$$




USA.gov is the U.S. government's official web portal to all federal, state and local government web resources and services.